Location: Shenandoah County Park
(38.9356°N, 78.4524°W)
Time: 08:23:52
(UTC-04:00)

Vanguard 1 - Pass Details

Date: 02 February 2023
Orbit: 648 x 3832 km, 34.3° (Epoch: 01 April)

Event Time Altitude Azimuth Distance (km) Brightness Sun altitude
Exits shadow 05:49:52 15° 238° (WSW) 2,768 11.9 -17.7°
Maximum altitude 05:56:28 61° 162° (SSE) 1,875 11.5 -16.4°
Drops below altitude 10° 06:10:41 10° 87° (E) 5,507 15.2 -13.7°
Sets 06:16:05 0° 85° (E) 6,994 16.0 -12.6°
